Regional Weather Roundup
Issued by NWS

Home | Current Version | Previous Version | Graphics & Text | Print | Product List | Glossary Off
Versions: 1 2 3 4 5 6 7 8 9 10 11 12 13 14 15 16 17 18 19 20 21 22 23 24 25 26 27 28 29 30 31 32 33 34 35 36 37 38 39 40 41 42 43 44 45 46 47 48 49 50

000
ASUS43 KFSD 301302
RWRSD

WEATHER ROUNDUP FOR SOUTH DAKOTA
NATIONAL WEATHER SERVICE SIOUX FALLS SD
800 AM CDT MON MAY 30 2016

NOTE: "FAIR" INDICATES FEW OR NO CLOUDS BELOW 12,000 FEET WITH NO
SIGNIFICANT WEATHER AND/OR OBSTRUCTIONS TO VISIBILITY.


SDZ001>005-009-010-012>017-301400-
NORTHWEST AND NORTH CENTRAL SOUTH DAKOTA

CITY           SKY/WX    TMP DP  RH WIND       PRES   REMARKS
BUFFALO          N/A     55  51  86 NE5       29.81F
FAITH            N/A     59  53  80 SE18G25   29.88F
MOBRIDGE       SUNNY     62  56  80 SE7       29.90S
$$

SDZ012>016-024>037-041>051-057-063-072>074-301400-
SOUTHWEST AND SOUTH CENTRAL SOUTH DAKOTA

CITY           SKY/WX    TMP DP  RH WIND       PRES   REMARKS
RAPID CTY ARPT MOSUNNY   56  52  86 SE3       29.89F
PIERRE         CLOUDY    62  57  83 SE13      29.90F
CUSTER         CLOUDY    51  43  74 W8        30.00F
ELLSWORTH AFB  MOSUNNY   58  54  87 SW3       29.88F
PHILIP         CLOUDY    57  55  93 E8        29.90S
PINE RIDGE     CLOUDY    58  50  75 SW8       29.93S
WINNER         FAIR      63  55  75 SE12      29.96F
$$

SDZ004>011-016>023-039-040-301400-
NORTHEAST SOUTH DAKOTA

CITY           SKY/WX    TMP DP  RH WIND       PRES   REMARKS
ABERDEEN       SUNNY     64  55  72 S6        29.94S
WATERTOWN      PTSUNNY   64  54  69 E5        29.95F
BROOKINGS      CLOUDY    60  56  86 SE3       29.97R
SISSETON         N/A     70  53  54 SW14      29.93F
$$

SDZ017-020-022-023-036>040-048>070-301400-
SOUTHEAST SOUTH DAKOTA

CITY           SKY/WX    TMP DP  RH WIND       PRES   REMARKS
SIOUX FALLS    CLOUDY    66  53  63 SE8       29.99S
HURON          LGT RAIN  62  57  83 MISG      29.93R
MITCHELL       MOSUNNY   63  59  87 SE16      29.98R
YANKTON        MOSUNNY   64  55  72 E9        29.98F
$$

ABBREVIATIONS USED IN REMARKS
   TC - TEMPERATURE IN CELSIUS
  WCI - WIND CHILL INDEX
   HX - HEAT INDEX
  VSB - VISIBILITY





USA.gov is the U.S. government's official web portal to all federal, state and local government web resources and services.